Richlands, VA

4:24 AM EDT on June 28, 2017 (GMT -0400)
Tazewell County

Weather History for KJFZ - April, 2014

Change the Weather History Date:

Tuesday, April 15, 2014

  Actual Average (KBLF) Record (KBLF)
Temperature  
Mean Temperature 47 °F -  
Max Temperature 64 °F 62 °F 82 °F (2006)
Min Temperature 30 °F 43 °F 25 °F (1962)
Degree Days  
Heating Degree Days 18    
Moisture  
Dew Point 38 °F    
Average Humidity 83    
Maximum Humidity 95    
Minimum Humidity 65    
Precipitation  
Precipitation 0.12 in - - ()
Sea Level Pressure  
Sea Level Pressure 29.86 in    
Wind  
Wind Speed 10 mph (WNW)    
Max Wind Speed 17 mph    
Max Gust Speed 30 mph    
Visibility 7 miles    
Events Rain , Snow    
Averages and records for this station are not official NWS values.
T = Trace of Precipitation, MM = Missing Value Source: NWS Daily Summary

Daily Weather History Graph

Daily Weather History Graph

Search for Another Location

Airport or City:

Trip Planner

Search our weather history database for the weather conditions in past years. The results will help you decide how hot, cold, wet, or windy it might be!

Date:

Astronomy

Apr. 15, 2014 Rise Set
Actual Time 6:52 AM EDT 8:02 PM EDT
Civil Twilight 6:26 AM EDT 8:28 PM EDT
Nautical Twilight 5:54 AM EDT 9:00 PM EDT
Astronomical Twilight 5:21 AM EDT 9:34 PM EDT
Moon 8:40 PM EDT (4/15) 7:00 AM EDT (4/15)
Length of Visible Light 14h 02m
Length of Day
13h 09m
Full, 100% of the Moon is Illuminated
Apr 15
Full
Apr 22
Last Quarter
Apr 29
New
May 6
First Quarter
May 14
Full

Hourly Weather History & Observations

Time (EDT) Temp. Windchill Dew Point Humidity Pressure Visibility Wind Dir Wind Speed Gust Speed Precip Events Conditions
12:15 AM 61.7 °F - 56.3 °F 82% 29.79 in 10.0 mi South 5.8 mph - N/A   Overcast
1:15 AM 63.5 °F - 54.5 °F 72% 29.77 in 10.0 mi WSW 6.9 mph - N/A   Clear
1:35 AM 64.2 °F - 54.5 °F 71% 29.75 in 10.0 mi SSW 9.2 mph - N/A   Scattered Clouds
1:55 AM 64.4 °F - 54.3 °F 70% 29.75 in 10.0 mi SSW 11.5 mph 17.3 mph N/A   Scattered Clouds
2:15 AM 64.4 °F - 54.1 °F 69% 29.74 in 7.0 mi South 5.8 mph - N/A   Mostly Cloudy
2:35 AM 64.4 °F - 54.0 °F 69% 29.73 in 10.0 mi SW 6.9 mph - N/A   Overcast
2:55 AM 63.9 °F - 54.1 °F 71% 29.73 in 10.0 mi SW 10.4 mph - N/A   Mostly Cloudy
3:15 AM 63.5 °F - 54.5 °F 72% 29.73 in 10.0 mi SW 8.1 mph 18.4 mph N/A   Mostly Cloudy
3:35 AM 62.4 °F - 54.9 °F 76% 29.72 in 10.0 mi WSW 6.9 mph - N/A   Overcast
3:55 AM 62.2 °F - 55.4 °F 78% 29.71 in 10.0 mi SW 9.2 mph - N/A   Overcast
4:15 AM 62.4 °F - 55.2 °F 77% 29.70 in 10.0 mi SW 6.9 mph - N/A   Mostly Cloudy
4:35 AM 62.6 °F - 54.9 °F 76% 29.70 in 10.0 mi SW 10.4 mph 18.4 mph N/A   Mostly Cloudy
4:55 AM 62.4 °F - 54.7 °F 76% 29.70 in 10.0 mi WSW 15.0 mph 25.3 mph N/A   Mostly Cloudy
5:15 AM 62.1 °F - 54.5 °F 76% 29.69 in 10.0 mi SW 13.8 mph 21.9 mph N/A   Mostly Cloudy
5:35 AM 61.7 °F - 54.3 °F 77% 29.69 in 10.0 mi SW 16.1 mph 21.9 mph N/A   Light Drizzle
5:55 AM 60.8 °F - 54.5 °F 80% 29.68 in 10.0 mi SW 12.7 mph 24.2 mph N/A   Drizzle
6:15 AM 60.1 °F - 54.5 °F 82% 29.68 in 10.0 mi SW 16.1 mph 21.9 mph N/A Rain Light Rain
6:35 AM 59.7 °F - 54.5 °F 83% 29.67 in 10.0 mi SW 9.2 mph 18.4 mph N/A Rain Rain
6:55 AM 59.2 °F - 54.5 °F 84% 29.68 in 10.0 mi West 10.4 mph - N/A   Overcast
7:15 AM 59.0 °F - 54.9 °F 86% 29.69 in 10.0 mi WSW 16.1 mph 29.9 mph N/A   Drizzle
7:35 AM 49.1 °F - 45.9 °F 89% 29.71 in 4.0 mi NW 13.8 mph 18.4 mph 0.05 in Rain Light Rain
7:55 AM 47.1 °F - 44.1 °F 89% 29.73 in 3.0 mi NW 16.1 mph 25.3 mph 0.06 in Rain Light Rain
8:15 AM 45.5 °F 40.3 °F 42.8 °F 90% 29.76 in 3.0 mi NW 10.4 mph 17.3 mph 0.01 in Rain Rain
8:35 AM 44.6 °F 38.8 °F 42.3 °F 91% 29.77 in 3.0 mi NW 11.5 mph 18.4 mph 0.01 in Rain Light Rain
8:55 AM 44.1 °F 38.1 °F 41.4 °F 90% 29.77 in 5.0 mi NW 11.5 mph - 0.01 in Rain Rain
9:15 AM 43.3 °F 37.7 °F 41.2 °F 92% 29.77 in 5.0 mi NW 10.4 mph - N/A Rain Light Rain
9:35 AM 42.8 °F 36.6 °F 40.6 °F 92% 29.77 in 5.0 mi NW 11.5 mph - N/A   Overcast
9:55 AM 41.7 °F 35.2 °F 39.6 °F 92% 29.77 in 3.0 mi NW 11.5 mph 17.3 mph N/A   Overcast
10:15 AM 41.2 °F 35.5 °F 39.4 °F 93% 29.79 in 1.2 mi NW 9.2 mph - N/A   Overcast
10:35 AM 40.8 °F 34.1 °F 38.8 °F 93% 29.80 in 2.5 mi NW 11.5 mph 18.4 mph N/A Rain Light Rain
10:55 AM 40.1 °F 33.2 °F 37.4 °F 90% 29.82 in 5.0 mi NW 11.5 mph 17.3 mph N/A Rain Rain
11:15 AM 39.4 °F 31.4 °F 37.4 °F 93% 29.84 in 3.0 mi NNW 13.8 mph 18.4 mph 0.01 in   Heavy Drizzle
11:35 AM 39.0 °F 32.3 °F 36.7 °F 91% 29.85 in 4.0 mi NW 10.4 mph - 0.01 in Rain Rain
11:55 AM 38.5 °F 31.6 °F 36.1 °F 91% 29.86 in 7.0 mi NW 10.4 mph 18.4 mph 0.01 in Rain Rain
12:15 PM 37.4 °F 32.8 °F 34.7 °F 90% 29.87 in 2.0 mi NNW 5.8 mph 20.7 mph 0.01 in Snow Light Snow
12:35 PM 36.0 °F 29.6 °F 34.0 °F 93% 29.87 in 0.5 mi NW 8.1 mph 18.4 mph 0.02 in Snow Light Snow
12:55 PM 35.6 °F 30.7 °F 33.8 °F 93% 29.88 in 0.5 mi NW 5.8 mph - 0.02 in Snow Light Snow
1:35 PM 34.7 °F 28.1 °F 32.9 °F 93% 29.88 in 0.2 mi NW 8.1 mph - 0.01 in Snow Snow
1:55 PM 33.3 °F 24.6 °F 32.0 °F 95% 29.89 in 0.5 mi NW 11.5 mph - 0.02 in Snow Snow
2:15 PM 32.9 °F 25.9 °F 31.6 °F 95% 29.90 in 1.2 mi NW 8.1 mph 18.4 mph N/A Snow Light Snow
2:35 PM 33.1 °F 24.9 °F 31.6 °F 94% 29.91 in 1.8 mi NNW 10.4 mph - N/A Snow Light Snow
2:55 PM 33.1 °F 26.1 °F 31.6 °F 94% 29.91 in 0.5 mi NW 8.1 mph 16.1 mph N/A Snow Light Snow
3:15 PM 32.7 °F 25.0 °F 31.1 °F 94% 29.92 in 1.0 mi NW 9.2 mph - N/A Snow Light Snow
3:35 PM 32.9 °F 23.7 °F 30.9 °F 92% 29.91 in 2.0 mi NNW 12.7 mph 20.7 mph N/A Snow Light Snow
3:55 PM 33.4 °F 25.4 °F 30.9 °F 90% 29.91 in 4.0 mi NW 10.4 mph 21.9 mph N/A Snow Light Snow
4:15 PM 33.8 °F 25.8 °F 30.6 °F 88% 29.92 in 7.0 mi NW 10.4 mph - N/A   Overcast
4:35 PM 33.3 °F 27.1 °F 30.9 °F 91% 29.93 in 4.0 mi NNW 6.9 mph 16.1 mph N/A Snow Light Snow
4:55 PM 33.3 °F 24.6 °F 29.8 °F 87% 29.93 in 7.0 mi NNW 11.5 mph 20.7 mph N/A   Overcast
5:15 PM 33.3 °F 25.1 °F 29.7 °F 87% 29.93 in 5.0 mi NW 10.4 mph 16.1 mph N/A   Overcast
5:35 PM 33.6 °F 26.8 °F 30.6 °F 89% 29.94 in 5.0 mi NNW 8.1 mph - N/A   Overcast
5:55 PM 33.8 °F 27.0 °F 30.4 °F 87% 29.94 in 10.0 mi NW 8.1 mph - N/A   Overcast
6:15 PM 33.8 °F 27.0 °F 30.0 °F 86% 29.96 in 7.0 mi NNW 8.1 mph 20.7 mph N/A   Overcast
6:35 PM 32.7 °F 22.1 °F 31.1 °F 94% 29.96 in 0.5 mi NNW 16.1 mph 21.9 mph N/A Snow Light Snow
6:55 PM 32.0 °F 21.6 °F 30.2 °F 93% 29.97 in 0.5 mi NNW 15.0 mph 21.9 mph N/A Snow Light Snow
7:15 PM 32.0 °F 23.0 °F 28.6 °F 87% 29.98 in 7.0 mi NW 11.5 mph 25.3 mph N/A   Overcast
7:35 PM 32.2 °F 23.8 °F 27.1 °F 82% 30.00 in 10.0 mi NNW 10.4 mph 23.0 mph N/A   Overcast
7:55 PM 32.0 °F 23.0 °F 27.5 °F 83% 30.01 in 10.0 mi NW 11.5 mph 19.6 mph N/A   Overcast
8:15 PM 32.0 °F 22.1 °F 27.1 °F 82% 30.03 in 10.0 mi NW 13.8 mph 21.9 mph N/A   Overcast
8:35 PM 32.0 °F 22.1 °F 25.2 °F 76% 30.04 in 10.0 mi NW 13.8 mph 20.7 mph N/A   Overcast
8:55 PM 32.0 °F 22.1 °F 24.3 °F 73% 30.05 in 10.0 mi NNW 13.8 mph 25.3 mph N/A   Overcast
9:15 PM 32.0 °F 22.1 °F 23.9 °F 72% 30.06 in 10.0 mi NNW 13.8 mph 23.0 mph N/A   Overcast
9:35 PM 31.8 °F 20.6 °F 22.3 °F 68% 30.08 in 10.0 mi NNW 17.3 mph 24.2 mph N/A   Overcast
9:55 PM 31.6 °F 26.0 °F 23.0 °F 70% 30.08 in 10.0 mi NW 5.8 mph - N/A   Overcast
10:15 PM 31.5 °F 22.3 °F 22.1 °F 68% 30.09 in 10.0 mi NNW 11.5 mph 16.1 mph N/A   Overcast
10:35 PM 31.1 °F 24.5 °F 22.8 °F 71% 30.10 in 10.0 mi NNW 6.9 mph - N/A   Overcast
10:55 PM 31.1 °F 23.1 °F 22.6 °F 71% 30.10 in 10.0 mi NNW 9.2 mph 17.3 mph N/A   Overcast
11:15 PM 31.1 °F 22.4 °F 23.0 °F 72% 30.10 in 10.0 mi NNW 10.4 mph - N/A   Overcast
11:35 PM 30.7 °F 20.9 °F 20.1 °F 65% 30.09 in 10.0 mi NNW 12.7 mph 21.9 mph N/A   Overcast
11:55 PM 30.2 °F 20.8 °F 21.0 °F 69% 30.08 in 10.0 mi NNW 11.5 mph 17.3 mph N/A   Overcast